#timestamp,LO_Frequency,Hit,StdDev 
1561705215.5,286047001.0,N
1561705235.3,286047000.2,N
1561705255.2,286047000.6,N
1561705305.9,286046998.4,E
1561705315.8,286047000.5,N
1561705335.7,286046998.6,P
1561705355.5,286047001.1,N
1561705375.4,286046999.7,N
1561705395.2,286047000.2,N
1561705415.0,286047000.2,N
1561705415.9,286047000.2,N
1561705435.8,286047000.2,N
1561705455.6,286047001.4,N
1561705475.5,286046999.9,N
1561705495.3,286046998.2,N
1561705515.1,286047000.9,N
1561705535.9,286046998.6,N
1561705555.7,286047002.7,N
1561705575.5,286046998.2,N
1561705595.4,286046998.3,N
1561705615.2,286046998.1,N
1561705635.1,286047001.1,N
1561705636.0,286047001.1,N
1561705655.8,286047000.2,N
1561705675.6,286047000.8,N
1561705695.5,286046998.7,N
1561705715.3,286046998.5,N
1561705735.2,286046998.9,N
1561705755.9,286046997.2,N
1561705775.7,286046997.2,N
1561705795.6,286046999.2,N
1561705815.4,286046998.7,N
1561705835.3,286047001.1,N
1561705855.1,286047001.1,N
1561705856.0,286047001.1,N
1561705875.8,286047001.1,N
1561705895.7,286046998.1,N
1561705915.5,286046999.8,N
1561705935.3,286047002.1,N
1561705955.2,286047002.2,N
1561705975.0,286047000.2,N
1561705975.9,286047000.2,N
1561705995.8,286047002.3,N
1561706015.6,286047002.1,N
1561706035.4,286047000.1,N
1561706055.3,286047002.1,N
1561706075.1,286047001.4,N
1561706095.8,286047002.0,N
1561706115.7,286047001.7,N
1561706135.5,286047001.5,N
1561706155.4,286047001.7,N
1561706175.2,286047004.3,N
1561706195.0,286047002.1,N
1561706195.9,286047002.1,N
1561706215.8,286047000.6,N
1561706235.6,286047000.2,N
1561706255.5,286047000.1,N
1561706275.3,286047000.4,N
1561706295.1,286047001.4,N
1561706315.9,286047001.7,N
1561706335.7,286047002.6,N
1561706355.5,286047000.3,N
1561706375.4,286047002.3,N
1561706395.2,286047000.1,N
1561706415.1,286047000.4,N
1561706416.0,286047000.4,N
1561706435.8,286047002.0,N
1561706455.8,286047002.8,N
1561706475.7,286047002.7,N
1561706495.5,286047002.8,N
1561706515.4,286047002.7,N
1561706535.2,286047001.5,N
1561706555.0,286047003.2,Y
1561706555.9,286047003.2,P
1561706575.8,286046999.8,N
1561706595.6,286047000.2,N
1561706615.5,286047000.6,N
1561706635.3,286047000.1,N
1561706655.1,286047002.4,N
1561706675.9,286047002.4,N
1561706695.7,286047001.8,N
1561706715.5,286047002.2,N
1561706735.4,286047001.6,N
1561706755.2,286047001.9,N
1561706775.1,286047002.5,N
1561706776.0,286047002.5,N
1561706795.8,286047000.5,N
1561706815.6,286047000.1,N
1561706835.5,286047000.3,N
1561706855.3,286047000.2,N
1561706875.2,286047002.1,N
1561706895.9,286047000.1,N
1561706915.7,286047000.2,N
1561706935.0,286046999.9,N
1561706935.9,286046999.9,N
1561706955.8,286046998.7,N
1561706975.6,286046998.1,N
1561706995.4,286046998.9,N
1561707015.3,286046999.0,N
1561707035.1,286046999.3,N
1561707055.9,286046997.2,N
1561707075.7,286046996.6,N
1561707095.8,286046996.8,N
1561707115.6,286046997.2,N
1561707135.5,286046999.0,N
1561707155.3,286046999.0,N
1561707175.1,286046996.9,N
1561707195.9,286046997.4,N
1561707215.7,286046996.6,N
1561707235.6,286046997.1,N
1561707255.4,286046996.7,N
1561707275.2,286046999.5,N
1561707295.1,286046996.9,N
1561707296.0,286046996.9,N
1561707315.8,286046996.9,N
1561707335.7,286046997.0,N
1561707355.5,286046997.3,N
1561707375.3,286046996.8,N
1561707395.2,286046997.0,N
1561707415.9,286046999.1,N
1561707435.7,286046998.7,N
1561707455.6,286046996.9,N
1561707475.4,286046997.2,N
1561707495.3,286046996.4,Y
1561707515.1,286046997.5,P
1561707535.8,286046997.4,P
1561707555.7,286046996.9,P
1561707575.5,286046996.7,Y
1561707595.4,286047000.3,P
1561707615.2,286047000.4,N
1561707635.0,286047000.0,N
1561707635.9,286047000.0,N
1561707655.8,286047002.8,N
1561707675.6,286047002.8,N
1561707695.4,286047002.8,N
1561707715.3,286047002.7,N
1561707735.1,286047002.3,N
1561707755.9,286047001.9,N
1561707775.7,286047002.2,N
1561707795.5,286047001.9,N
1561707815.4,286047001.6,N
1561707835.2,286047003.9,N
1561707855.1,286047001.5,N
1561707856.0,286047001.5,N
1561707875.6,286047002.8,N
1561707895.4,286047002.5,N
1561707915.3,286047002.5,N
1561707935.1,286047002.1,N
1561707955.8,286047001.5,N
1561707975.7,286047002.2,N
1561707995.5,286047001.9,N
1561708015.4,286047002.0,N
1561708035.2,286047001.4,N
1561708055.0,286047004.1,Y
1561708055.9,286047004.1,P
1561708075.8,286047002.1,N
1561708095.6,286047000.1,N
1561708115.5,286047000.3,N
1561708135.3,286046999.9,N
1561708155.1,286047002.1,N
1561708175.9,286046999.7,N
1561708195.1,286046999.8,N
1561708196.0,286046999.8,N
1561708215.8,286047002.8,N
1561708235.4,286047000.5,N
1561708255.2,286047002.8,N
1561708275.1,286047002.2,N
1561708276.0,286047002.2,N
1561708295.8,286047002.4,N
1561708315.7,286047000.2,N
1561708335.5,286047000.6,N
1561708355.3,286047002.6,N
1561708375.2,286047002.4,N
1561708395.9,286046999.7,N
1561708415.7,286047000.0,N
1561708435.6,286046999.9,N
1561708455.4,286047002.3,N
1561708475.3,286046999.9,N
1561708495.1,286047000.9,N
1561708515.8,286047000.5,N
1561708535.7,286047002.2,N
1561708555.5,286047001.0,N
1561708575.4,286047002.2,N
1561708595.4,286047001.8,N
1561708615.2,286047002.5,N
1561708635.0,286047003.9,Y
1561708635.9,286047003.9,P
1561708655.8,286047001.5,N
1561708675.6,286046999.7,N
1561708695.5,286047002.4,N
1561708715.3,286047002.3,N
1561708735.1,286047001.7,N
1561708755.9,286047001.6,N
1561708775.7,286047001.7,N
1561708795.6,286047004.4,Y
